FW7499 Weather Reports


time (UTC)temp
F
wind
direction
speed
knots
gust
knots
rain 1hr
in
rain 24hr
in
rain mn
in
humidity
%
barometer
mb
20260510194515 73 352 2.6 7.8 0.00 0.00 0.00 29 1020.9
20260510194006 72 330 1.7 8.7 0.00 0.00 0.00 32 1021.0
20260510193503 73 316 2.6 8.7 0.00 0.00 0.00 33 1021.0
20260510193014 73 319 2.6 8.7 0.00 0.00 0.00 29 1021.1
20260510192506 73 333 1.7 8.7 0.00 0.00 0.00 35 1021.1
20260510192007 72 9 3.5 8.7 0.00 0.00 0.00 33 1021.2
20260510191512 72 326 1.7 7.8 0.00 0.00 0.00 36 1021.3
20260510191007 71 327 0.9 7.0 0.00 0.00 0.00 27 1021.4
20260510190507 71 21 1.7 7.0 0.00 0.00 0.00 33 1021.4
20260510190025 72 192 0.9 7.0 0.00 0.00 0.00 34 1021.5
20260510185506 73 325 1.7 7.0 0.00 0.00 0.00 32 1021.6
20260510185006 72 346 0.9 7.0 0.00 0.00 0.00 33 1021.6
20260510184515 72 345 1.7 6.1 0.00 0.00 0.00 32 1021.6
20260510184008 72 311 1.7 7.0 0.00 0.00 0.00 33 1021.8
20260510183507 71 307 2.6 7.0 0.00 0.00 0.00 33 1021.8
20260510183023 71 331 2.6 6.1 0.00 0.00 0.00 33 1021.8
20260510182506 71 309 2.6 6.1 0.00 0.00 0.00 34 1021.9
20260510182007 71 229 0.9 8.7 0.00 0.00 0.00 30 1022.0
20260510181516 70 317 2.6 8.7 0.00 0.00 0.00 34 1022.1
20260510181007 71 317 1.7 6.1 0.00 0.00 0.00 37 1022.2
20260510180507 71 302 0.9 7.0 0.00 0.00 0.00 35 1022.4
20260510180019 70 317 3.5 7.0 0.00 0.00 0.00 37 1022.4
20260510175508 69 360 0.9 7.8 0.00 0.00 0.00 39 1022.5
20260510175009 69 309 2.6 7.8 0.00 0.00 0.00 33 1022.5
20260510174518 70 217 1.7 5.2 0.00 0.00 0.00 34 1022.4
20260510174006 69 264 1.7 7.0 0.00 0.00 0.00 35 1022.4
20260510173504 69 324 0.9 7.0 0.00 0.00 0.00 34 1022.4
20260510173015 68 328 1.7 7.8 0.00 0.00 0.00 36 1022.4
20260510172506 68 346 0.9 7.8 0.00 0.00 0.00 34 1022.5
20260510172006 69 321 3.5 7.0 0.00 0.00 0.00 36 1022.5
20260510171512 69 360 0.9 5.2 0.00 0.00 0.00 38 1022.5
20260510171007 67 29 0.9 5.2 0.00 0.00 0.00 35 1022.5
20260510170507 67 319 1.7 7.0 0.00 0.00 0.00 38 1022.6
20260510170021 65 260 1.7 7.0 0.00 0.00 0.00 33 1022.6
20260510165511 65 262 1.7 6.1 0.00 0.00 0.00 37 1022.8
20260510165006 65 263 0.9 7.8 0.00 0.00 0.00 34 1022.7
20260510164522 65 245 0.9 7.8 0.00 0.00 0.00 33 1022.7
20260510164007 66 313 0.9 7.8 0.00 0.00 0.00 37 1022.7
20260510163508 67 259 1.7 7.0 0.00 0.00 0.00 37 1022.8
20260510163020 64 341 0.9 5.2 0.00 0.00 0.00 39 1022.8
20260510162510 65 213 1.7 5.2 0.00 0.00 0.00 32 1022.7
20260510162007 66 288 0.0 3.5 0.00 0.00 0.00 34 1022.7
20260510161519 65 223 0.0 3.5 0.00 0.00 0.00 40 1022.7
20260510161011 65 270 0.9 3.5 0.00 0.00 0.00 38 1022.8
20260510160509 65 304 1.7 3.5 0.00 0.00 0.00 37 1022.8
20260510160021 64 71 0.9 4.3 0.00 0.00 0.00 38 1022.8
20260510155513 64 53 0.0 5.2 0.00 0.00 0.00 35 1022.9
20260510155006 63 333 0.9 5.2 0.00 0.00 0.00 36 1022.9
20260510154529 64 182 0.9 3.5 0.00 0.00 0.00 35 1022.9
20260510154008 65 344 0.9 4.3 0.00 0.00 0.00 39 1022.8
20260510153509 63 5 0.9 4.3 0.00 0.00 0.00 37 1022.9
20260510153033 62 63 0.0 5.2 0.00 0.00 0.00 42 1022.9
20260510152507 63 128 1.7 5.2 0.00 0.00 0.00 37 1022.9
20260510152011 62 204 0.9 5.2 0.00 0.00 0.00 36 1022.8
20260510151522 62 90 1.7 4.3 0.00 0.00 0.00 37 1022.8
20260510151008 61 319 0.0 2.6 0.00 0.00 0.00 39 1022.8
20260510150507 60 243 0.0 2.6 0.00 0.00 0.00 35 1022.8
20260510150023 60 145 0.0 2.6 0.00 0.00 0.00 37 1022.7
20260510145511 60 200 0.0 2.6 0.00 0.00 0.00 36 1022.7
20260510145007 60 273 0.0 4.3 0.00 0.00 0.00 43 1022.7
20260510144542 60 163 0.9 4.3 0.00 0.00 0.00 41 1022.7
20260510144009 59 98 0.0 3.5 0.00 0.00 0.00 43 1022.6
20260510143506 59 91 0.0 3.5 0.00 0.00 0.00 38 1022.5
20260510143023 59 98 0.0 2.6 0.00 0.00 0.00 41 1022.5
20260510142510 59 148 0.0 2.6 0.00 0.00 0.00 41 1022.4
20260510142007 58 172 0.0 2.6 0.00 0.00 0.00 41 1022.3
20260510141514 58 156 0.0 2.6 0.00 0.00 0.00 45 1022.3
20260510141007 58 55 0.0 1.7 0.00 0.00 0.00 45 1022.2
20260510140504 57 55 0.0 1.7 0.00 0.00 0.00 45 1022.1
20260510140015 57 42 0.0 1.7 0.00 0.00 0.00 49 1022.1
20260510135507 56 333 0.0 1.7 0.00 0.00 0.00 52 1022.1
20260510135007 56 333 0.0 1.7 0.00 0.00 0.00 52 1022.1
20260510134512 56 328 0.0 1.7 0.00 0.00 0.00 52 1022.0
20260510134009 55 328 0.0 0.9 0.00 0.00 0.00 57 1022.1
20260510133507 54 328 0.0 0.9 0.00 0.00 0.00 57 1022.1
20260510133020 53 328 0.0 0.0 0.00 0.00 0.00 56 1022.0
20260510132506 54 328 0.0 0.9 0.00 0.00 0.00 55 1022.0
20260510132009 53 328 0.0 1.7 0.00 0.00 0.00 55 1022.1
20260510131517 52 328 0.0 1.7 0.00 0.00 0.00 58 1022.2
20260510131008 51 328 0.0 0.9 0.00 0.00 0.00 59 1022.1
20260510130506 50 328 0.0 1.7 0.00 0.00 0.00 61 1022.0
20260510130014 49 328 0.0 1.7 0.00 0.00 0.00 63 1021.9
20260510125506 49 328 0.0 1.7 0.00 0.00 0.00 64 1021.7
20260510125008 48 328 0.0 0.9 0.00 0.00 0.00 66 1021.8
20260510124517 47 328 0.0 0.9 0.00 0.00 0.00 67 1021.7
20260510124012 47 328 0.0 1.7 0.00 0.00 0.00 65 1021.7
20260510123512 47 328 0.0 1.7 0.00 0.00 0.00 63 1021.6
20260510123022 47 328 0.0 0.0 0.00 0.00 0.00 66 1021.5
20260510122510 47 328 0.0 0.0 0.00 0.00 0.00 68 1021.5
20260510122010 46 328 0.0 0.0 0.00 0.00 0.00 68 1021.5
20260510121519 45 328 0.0 0.0 0.00 0.00 0.00 70 1021.4
20260510121009 45 328 0.0 0.0 0.00 0.00 0.00 71 1021.4
20260510120509 45 328 0.0 0.0 0.00 0.00 0.00 72 1021.3
20260510120025 44 328 0.0 0.0 0.00 0.00 0.00 72 1021.3
20260510115511 44 328 0.0 0.0 0.00 0.00 0.00 72 1021.2
20260510115008 44 328 0.0 0.0 0.00 0.00 0.00 73 1021.3
20260510114518 44 328 0.0 0.0 0.00 0.00 0.00 74 1021.2
20260510114007 43 328 0.0 0.0 0.00 0.00 0.00 74 1021.1
20260510113507 43 328 0.0 0.0 0.00 0.00 0.00 73 1021.1
20260510113004 43 328 0.0 0.0 0.00 0.00 0.00 74 1021.1
20260510112504 43 328 0.0 0.0 0.00 0.00 0.00 73 1021.1
20260510112004 43 328 0.0 0.0 0.00 0.00 0.00 73 1021.1
20260510111505 43 328 0.0 0.0 0.00 0.00 0.00 73 1021.2
20260510111008 43 328 0.0 0.0 0.00 0.00 0.00 72 1021.1
20260510110503 44 328 0.0 0.0 0.00 0.00 0.00 72 1021.1
20260510110012 44 328 0.0 0.0 0.00 0.00 0.00 72 1021.1
20260510105503 44 328 0.0 0.0 0.00 0.00 0.00 71 1021.0
20260510105003 43 328 0.0 0.0 0.00 0.00 0.00 70 1020.9
20260510104516 43 328 0.0 0.0 0.00 0.00 0.00 69 1020.9
20260510104003 43 328 0.0 0.0 0.00 0.00 0.00 70 1021.0
20260510103507 43 328 0.0 0.0 0.00 0.00 0.00 69 1021.0
20260510103012 43 328 0.0 0.0 0.00 0.00 0.00 70 1020.9
20260510102503 43 328 0.0 0.0 0.00 0.00 0.00 69 1020.8
20260510102007 43 328 0.0 0.9 0.00 0.00 0.00 69 1020.7
20260510101504 44 328 0.0 0.9 0.00 0.00 0.00 69 1020.5
20260510101005 44 328 0.0 0.9 0.00 0.00 0.00 68 1020.5
20260510100505 44 328 0.0 0.9 0.00 0.00 0.00 68 1020.5
20260510100005 44 328 0.0 1.7 0.00 0.00 0.00 69 1020.5
20260510095504 44 328 0.0 1.7 0.00 0.00 0.00 68 1020.4
20260510095007 44 328 0.0 0.9 0.00 0.00 0.00 68 1020.3
20260510094505 44 328 0.0 0.0 0.00 0.00 0.00 68 1020.3
20260510094007 44 328 0.0 0.0 0.00 0.00 0.00 68 1020.3
20260510093508 44 328 0.0 0.0 0.00 0.00 0.00 68 1020.2
20260510093004 43 328 0.0 0.0 0.00 0.00 0.00 69 1020.0
20260510092504 44 328 0.0 0.0 0.00 0.00 0.00 68 1020.0
20260510092004 43 328 0.0 0.0 0.00 0.00 0.00 68 1020.0
20260510091527 43 328 0.0 0.0 0.00 0.00 0.00 68 1019.8
20260510091004 43 328 0.0 0.0 0.00 0.00 0.00 69 1019.7
20260510090504 43 328 0.0 0.0 0.00 0.00 0.00 68 1019.6
20260510090006 43 328 0.0 0.0 0.00 0.00 0.00 67 1019.5
20260510085503 43 328 0.0 0.0 0.00 0.00 0.00 66 1019.5
20260510085005 44 328 0.0 0.0 0.00 0.00 0.00 64 1019.5
20260510084527 45 328 0.0 0.0 0.00 0.00 0.00 62 1019.6
20260510084003 45 328 0.0 0.0 0.00 0.00 0.00 60 1019.6
20260510083503 45 328 0.0 0.0 0.00 0.00 0.00 61 1019.5
20260510083014 45 328 0.0 0.0 0.00 0.00 0.00 63 1019.5
20260510082503 45 328 0.0 0.0 0.00 0.00 0.00 61 1019.4
20260510082006 45 328 0.0 0.0 0.00 0.00 0.00 62 1019.3
20260510081516 45 328 0.0 0.0 0.00 0.00 0.00 62 1019.4
20260510081007 45 328 0.0 0.0 0.00 0.00 0.00 62 1019.3
20260510080505 46 328 0.0 0.0 0.00 0.00 0.00 60 1019.4
20260510080013 46 328 0.0 0.0 0.00 0.00 0.00 58 1019.4
20260510075504 46 328 0.0 0.0 0.00 0.00 0.00 61 1019.5
20260510075007 46 328 0.0 0.0 0.00 0.00 0.00 63 1019.4
20260510074503 46 328 0.0 0.0 0.00 0.00 0.00 61 1019.2
20260510074004 46 328 0.0 0.0 0.00 0.00 0.00 62 1019.1
20260510073505 47 328 0.0 0.0 0.00 0.00 0.00 59 1019.1
20260510073011 47 328 0.0 0.9 0.00 0.00 0.00 58 1018.9
20260510072503 47 328 0.0 0.9 0.00 0.00 0.00 59 1019.0
20260510072003 47 328 0.0 0.0 0.00 0.00 0.00 58 1018.9
20260510071517 47 328 0.0 0.0 0.00 0.00 0.00 58 1018.9
20260510071006 48 328 0.0 0.0 0.00 0.00 0.00 58 1018.9
20260510070506 48 328 0.0 0.0 0.00 0.00 0.00 57 1018.9
20260510070018 48 328 0.0 0.0 0.00 0.00 0.00 55 1018.9
20260510065507 48 328 0.0 0.0 0.00 0.00 0.00 55 1018.9
20260510065013 48 328 0.0 0.0 0.00 0.00 0.00 58 1018.9
20260510064514 48 328 0.0 0.0 0.00 0.00 0.00 57 1018.9
20260510064003 49 328 0.0 0.0 0.00 0.00 0.00 55 1018.8
20260510063509 49 328 0.0 0.0 0.00 0.00 0.00 54 1018.7
20260510063010 50 328 0.0 0.0 0.00 0.00 0.00 53 1018.5
20260510062506 50 328 0.0 0.0 0.00 0.00 0.00 53 1018.7
20260510062003 51 328 0.0 1.7 0.00 0.00 0.00 51 1018.8
20260510061514 50 328 0.0 1.7 0.00 0.00 0.00 54 1018.8
20260510061003 51 328 0.0 0.9 0.00 0.00 0.00 53 1018.6
20260510060508 51 328 0.0 0.9 0.00 0.00 0.00 53 1018.5
20260510060018 51 328 0.0 0.9 0.00 0.00 0.00 52 1018.3
20260510055507 52 328 0.0 1.7 0.00 0.00 0.00 52 1018.1
20260510055004 52 328 0.0 1.7 0.00 0.00 0.00 50 1018.0
20260510054522 53 328 0.0 2.6 0.00 0.00 0.00 49 1017.8
20260510054008 53 328 0.0 2.6 0.00 0.00 0.00 48 1017.5
20260510053507 52 327 0.9 2.6 0.00 0.00 0.00 49 1017.3
20260510053019 52 330 0.0 1.7 0.00 0.00 0.00 49 1017.3
20260510052508 53 330 0.0 1.7 0.00 0.00 0.00 49 1017.2
20260510052007 53 330 0.0 1.7 0.00 0.00 0.00 48 1017.2
20260510051512 53 330 0.0 1.7 0.00 0.00 0.00 47 1017.0
20260510051006 54 330 0.9 1.7 0.00 0.00 0.00 47 1016.9
20260510050508 54 330 0.0 1.7 0.00 0.00 0.00 46 1017.0
20260510050016 54 330 0.0 0.9 0.00 0.00 0.00 45 1016.9
20260510045507 55 330 0.0 1.7 0.00 0.00 0.00 45 1016.8
20260510045007 55 330 0.0 2.6 0.00 0.00 0.00 45 1016.7
20260510044512 55 330 0.9 2.6 0.00 0.00 0.00 44 1016.6
20260510044007 55 330 0.0 2.6 0.00 0.00 0.00 46 1016.5
20260510043510 56 330 0.9 2.6 0.00 0.00 0.00 44 1016.5
20260510043008 56 330 0.9 2.6 0.00 0.00 0.00 44 1016.5
20260510042505 56 327 0.0 1.7 0.00 0.00 0.00 45 1016.3
20260510042002 56 327 0.0 1.7 0.00 0.00 0.00 44 1016.2
20260510041502 56 327 0.0 1.7 0.00 0.00 0.00 46 1016.2
20260510041003 57 327 0.0 3.5 0.00 0.00 0.00 44 1016.1
20260510040506 57 327 0.9 3.5 0.00 0.00 0.00 42 1016.0
20260510040012 57 323 0.9 3.5 0.00 0.00 0.00 44 1015.9
20260510035503 57 341 0.0 2.6 0.00 0.00 0.00 43 1015.9
20260510035005 57 355 0.0 3.5 0.00 0.00 0.00 44 1015.8
20260510034512 58 355 0.0 3.5 0.00 0.00 0.00 43 1015.7
20260510034010 57 352 0.0 1.7 0.00 0.00 0.00 45 1015.6
20260510033507 58 352 0.0 3.5 0.00 0.00 0.00 44 1015.6
20260510033004 59 352 0.0 3.5 0.00 0.00 0.00 42 1015.5
20260510032510 59 355 0.0 3.5 0.00 0.00 0.00 43 1015.4
20260510032007 59 343 0.0 1.7 0.00 0.00 0.00 42 1015.3
20260510031516 59 342 0.0 3.5 0.00 0.00 0.00 43 1015.3
20260510031004 59 10 0.0 3.5 0.00 0.00 0.00 42 1015.1
20260510030502 59 334 0.0 1.7 0.00 0.00 0.00 43 1015.0
20260510030011 60 333 0.0 1.7 0.00 0.00 0.00 42 1014.9
20260510025503 60 333 0.0 2.6 0.00 0.00 0.00 41 1014.9
20260510025003 60 327 0.9 2.6 0.00 0.00 0.00 41 1014.7
20260510024510 60 326 0.0 0.9 0.00 0.00 0.00 42 1014.5
20260510024003 60 326 0.0 0.9 0.00 0.00 0.00 42 1014.4
20260510023505 61 326 0.0 1.7 0.00 0.00 0.00 40 1014.3
20260510023021 61 326 0.0 1.7 0.00 0.00 0.00 41 1014.2
20260510022504 61 326 0.0 1.7 0.00 0.00 0.00 40 1014.1
20260510022008 62 326 0.0 1.7 0.00 0.00 0.00 40 1014.1
20260510021518 62 325 0.0 2.6 0.00 0.00 0.00 38 1013.9
20260510021008 62 325 0.0 2.6 0.00 0.00 0.00 40 1013.8
20260510020509 62 338 0.9 3.5 0.00 0.00 0.00 39 1013.6
20260510020014 63 338 0.9 3.5 0.00 0.00 0.00 38 1013.6
20260510015507 63 339 0.0 2.6 0.00 0.00 0.00 38 1013.4
20260510015005 63 339 0.9 2.6 0.00 0.00 0.00 38 1013.3
20260510014512 63 321 0.0 1.7 0.00 0.00 0.00 39 1013.2
20260510014006 64 329 0.0 2.6 0.00 0.00 0.00 38 1013.2
20260510013507 64 330 0.0 2.6 0.00 0.00 0.00 39 1013.0
20260510013008 64 135 0.0 5.2 0.00 0.00 0.00 39 1012.9
20260510012507 65 355 0.0 5.2 0.00 0.00 0.00 38 1012.8
20260510012009 65 350 0.0 3.5 0.00 0.00 0.00 38 1012.7
20260510011513 66 330 0.0 4.3 0.00 0.00 0.00 37 1012.6
20260510011007 66 346 1.7 4.3 0.00 0.00 0.00 37 1012.5
20260510010504 67 335 0.9 3.5 0.00 0.00 0.00 40 1012.3
20260510010027 67 105 0.9 4.3 0.00 0.00 0.00 40 1012.3
20260510005507 67 304 0.9 4.3 0.00 0.00 0.00 41 1012.2
20260510005009 67 22 0.9 4.3 0.00 0.00 0.00 44 1012.2
20260510004524 67 344 0.9 3.5 0.00 0.00 0.00 42 1012.1
20260510004007 67 345 0.9 5.2 0.00 0.00 0.00 42 1012.1
20260510003503 67 11 0.9 5.2 0.00 0.00 0.00 41 1012.1
20260510003013 67 315 0.0 2.6 0.00 0.00 0.00 42 1011.9
20260510002508 68 355 0.0 3.5 0.00 0.00 0.00 41 1012.0
20260510002009 68 317 1.7 3.5 0.00 0.00 0.00 41 1011.9
20260510001517 68 350 0.9 3.5 0.00 0.00 0.00 44 1011.9
20260510001010 68 360 0.0 3.5 0.00 0.00 0.00 44 1011.9
20260510000503 68 355 0.9 3.5 0.00 0.00 0.00 43 1012.0
20260510000016 68 302 0.9 3.5 0.00 0.00 0.00 44 1011.9
20260509235506 68 337 0.0 1.7 0.00 0.00 0.00 49 1011.9
20260509235013 68 329 0.0 2.6 0.00 0.00 0.00 47 1011.9
20260509234522 68 329 0.0 3.5 0.00 0.00 0.00 46 1011.9
20260509234010 68 341 0.9 3.5 0.00 0.00 0.00 47 1011.9
20260509233505 68 26 0.0 3.5 0.00 0.00 0.00 46 1011.9
20260509233030 68 323 0.0 3.5 0.00 0.00 0.00 46 1011.8
20260509232503 69 350 0.9 4.3 0.00 0.00 0.00 46 1011.8
20260509232008 68 309 1.7 4.3 0.00 0.00 0.00 46 1011.8
20260509231514 69 301 1.7 5.2 0.00 0.00 0.00 46 1011.8
20260509231010 69 342 0.0 5.2 0.00 0.00 0.00 46 1011.8
20260509230508 69 350 1.7 4.3 0.00 0.00 0.00 46 1011.8
20260509230020 69 351 1.7 5.2 0.00 0.00 0.00 46 1011.8
20260509225508 69 331 0.9 6.1 0.00 0.00 0.00 46 1011.7
20260509225005 69 318 0.9 6.1 0.00 0.00 0.00 46 1011.8
20260509224505 69 280 2.6 7.0 0.00 0.00 0.00 46 1011.7
20260509224002 70 338 3.5 7.0 0.00 0.00 0.00 46 1011.6
20260509223507 70 312 2.6 7.8 0.00 0.00 0.00 47 1011.7
20260509223004 70 29 0.9 7.8 0.00 0.00 0.00 45 1011.6
20260509222502 71 360 0.9 9.6 0.00 0.00 0.00 45 1011.5
20260509222003 70 235 2.6 9.6 0.00 0.00 0.00 47 1011.5
20260509221503 70 287 3.5 8.7 0.00 0.00 0.00 47 1011.4
20260509221003 70 302 2.6 8.7 0.00 0.00 0.00 46 1011.4
20260509220503 70 302 2.6 8.7 0.00 0.00 0.00 47 1011.4
20260509220016 70 302 3.5 8.7 0.00 0.00 0.00 46 1011.3
20260509215504 70 311 2.6 8.7 0.00 0.00 0.00 48 1011.2
20260509215001 70 342 1.7 7.0 0.00 0.00 0.00 46 1011.1
20260509214501 69 345 1.7 6.1 0.00 0.00 0.00 47 1011.1
20260509214002 69 36 0.9 5.2 0.00 0.00 0.00 46 1011.0
20260509213503 69 5 2.6 8.7 0.00 0.00 0.00 45 1011.1
20260509213007 69 314 4.3 8.7 0.00 0.00 0.00 45 1011.0
20260509212502 69 360 3.5 9.6 0.00 0.00 0.00 44 1011.0
20260509212003 70 314 4.3 9.6 0.00 0.00 0.00 43 1010.9
20260509211505 71 332 4.3 12.2 0.00 0.00 0.00 44 1010.8
20260509211003 71 332 1.7 12.2 0.00 0.00 0.00 43 1010.8
20260509210504 71 342 5.2 12.2 0.00 0.00 0.00 42 1010.7
20260509210017 71 360 1.7 9.6 0.00 0.00 0.00 41 1010.6
20260509205503 71 318 4.3 11.3 0.00 0.00 0.00 40 1010.6
20260509205003 72 325 5.2 12.2 0.00 0.00 0.00 39 1010.6
20260509204505 72 325 4.3 12.2 0.00 0.00 0.00 39 1010.5
20260509204002 72 301 4.3 13.9 0.00 0.00 0.00 42 1010.5
20260509203501 72 346 4.3 13.9 0.00 0.00 0.00 41 1010.2
20260509203003 73 329 5.2 13.9 0.00 0.00 0.00 41 1010.1
20260509202503 74 22 3.5 11.3 0.00 0.00 0.00 40 1009.9
20260509202006 76 347 4.3 10.4 0.00 0.00 0.00 37 1009.8
20260509201510 76 329 3.5 9.6 0.00 0.00 0.00 37 1009.7
20260509201009 78 311 4.3 9.6 0.00 0.00 0.00 34 1009.6
20260509200508 77 315 2.6 8.7 0.00 0.00 0.00 33 1009.5
20260509200013 76 291 3.5 7.8 0.00 0.00 0.00 33 1009.5
20260509195511 77 23 1.7 7.0 0.00 0.00 0.00 33 1009.4
20260509195003 77 318 2.6 7.8 0.00 0.00 0.00 30 1009.3